[[{"header":{"parameterUnit":"m.s-1","parameterCategory":1,"la1":30.2991,"la2":30.254,"lo1":-89.0895,"lo2":-89.0444,"dy":0.0017,"dx":0.0017,"nx":28,"ny":28,"refTime":"2025-06-05T03:00:00:Z","depth":0,"parameterNumber":2,"parameterNumberName":"U-component_of_WINDS"},"data":[0,0,0,0,0,0,0,0,0,0,0,0,0,0,0,0,0,0,0,0,0,0,0,0,0,0,0,0,0,0,0,0,0,0,0,0,0,0,0,0,0,0,0,0,0,0,0,0,0,0,0,0,0,0,0,0,0,0,0.1093,0.1094,0,0.1206,0.1207,0.1208,0.1257,0.1257,0.1256,0.1256,0.1371,0.1374,0.1377,0,0,0,0,0,0,0,0,0,0,0,0,0,0.0917,0.092,0.1093,0.1094,0.1096,0.1205,0.1207,0.1209,0.1257,0.1257,0.1256,0.1256,0.137,0.1374,0.1378,0,0,0,0,0,0,0,0,0,0,0,0,0,0.1008,0.0921,0.1093,0.1133,0.1138,0.1205,0.1207,0.1209,0.1257,0.1257,0.1256,0.1256,0.1369,0.1374,0.1378,0.1414,0,0,0.1393,0.1395,0,0,0,0,0,0,0,0,0.1003,0.1014,0.1126,0.113,0.1136,0.1217,0.1187,0.1278,0.1257,0.1212,0.1256,0.1256,0.132,0.1329,0.1351,0.1419,0.1424,0.1394,0.1396,0.1399,0.14,0,0,0,0,0,0,0,0.0996,0.101,0.1137,0.1127,0.1133,0.1145,0.1157,0.1205,0.1266,0.1216,0.1219,0.1232,0.1323,0.1346,0.1354,0.1426,0.1393,0.1398,0.1401,0.1403,0.1528,0.1528,0,0,0,0,0,0,0.0984,0.1004,0.1134,0.1141,0.1067,0.1148,0.1162,0.1191,0.1266,0.1277,0.1232,0.1234,0.1338,0.1348,0.1358,0.1404,0.1399,0.1403,0.1406,0.1527,0.1528,0.1528,0,0,0,0,0,0,0.098,0.0995,0.1129,0.1074,0.1092,0.1152,0.1183,0.1194,0.1217,0.1278,0.1289,0.1245,0.1338,0.1351,0.1399,0.1409,0.1405,0.141,0.1527,0.1528,0.1528,0.1496,0,0,0,0,0,0,0.0974,0.0993,0.1008,0.1074,0.1094,0.1169,0.1184,0.1196,0.1225,0.1228,0.1293,0.1303,0.1339,0.1392,0.1404,0.1415,0.1413,0.1526,0.1527,0.1528,0.1497,0.1496,0.1495,0,0,0,0,0,0.0968,0.0994,0.1008,0.1024,0.1114,0.117,0.1182,0.1222,0.1226,0.124,0.128,0.1301,0.1405,0.1396,0.1411,0.1423,0.1526,0.1527,0.1528,0.1497,0.1496,0.1495,0,0,0,0,0,0,0.0928,0.1004,0.102,0.1069,0.1112,0.1178,0.1198,0.122,0.1263,0.1265,0.1312,0.1327,0.137,0.1402,0.139,0.1461,0.1467,0.1471,0.1439,0.1438,0.1437,0.1429,0.1417,0,0,0,0,0,0.0925,0.0964,0.1028,0.1065,0.1086,0.1138,0.1164,0.1191,0.1238,0.1257,0.13,0.1344,0.1387,0.1414,0.1457,0.1501,0.1515,0.1517,0.1516,0.1514,0.1517,0.1542,0.1543,0.1531,0.1531,0.1531,0,0,0.0919,0.0965,0.0987,0.1058,0.1095,0.1134,0.1153,0.1194,0.1223,0.1263,0.1311,0.1344,0.1397,0.1443,0.1465,0.147,0.1524,0.1516,0.1514,0.1518,0.1543,0.1544,0.1545,0.1532,0.1532,0.1532,0,0,0.0928,0.0967,0.1001,0.1038,0.1094,0.1128,0.1136,0.1198,0.1222,0.1271,0.1301,0.1336,0.1409,0.1445,0.1473,0.1493,0.1515,0.1506,0.1501,0.1525,0.1526,0.1527,0.1534,0.1536,0.1508,0.1508,0.1508,0,0.0913,0.0974,0.1016,0.1055,0.1085,0.1122,0.1157,0.119,0.1257,0.1277,0.1281,0.1372,0.1411,0.1465,0.147,0.1491,0.1502,0.1499,0.1522,0.1524,0.1525,0.1533,0.1535,0.1507,0.1507,0.1507,0.1507,0,0.0953,0.0995,0.1016,0.1079,0.1111,0.1148,0.1195,0.1222,0.1246,0.1279,0.1328,0.1375,0.1427,0.1442,0.1466,0.15,0.1501,0.1513,0.1521,0.1524,0.1532,0.1535,0.1505,0.1505,0.1506,0.1506,0,0,0.0942,0.1027,0.1034,0.1063,0.1126,0.1159,0.1196,0.1248,0.127,0.1314,0.1347,0.1406,0.1418,0.1449,0.1477,0.1498,0.151,0.1508,0.1509,0.1506,0.155,0.1541,0.1543,0.1524,0.1525,0.1526,0.1546,0,0.0959,0.1029,0.1068,0.1121,0.1159,0.1194,0.1227,0.1269,0.1301,0.1337,0.1372,0.1414,0.1426,0.1445,0.1466,0.1504,0.152,0.1503,0.1555,0.1556,0.1541,0.1548,0.1538,0.1555,0.1549,0.1549,0.155,0,0.099,0.1033,0.1091,0.1149,0.1166,0.1195,0.1245,0.1279,0.1327,0.1349,0.1383,0.141,0.1451,0.1454,0.151,0.1497,0.152,0.1542,0.1544,0.1551,0.1554,0.1555,0.1561,0.1564,0.1555,0.1555,0.1554,0,0.0976,0.1048,0.1092,0.1116,0.1185,0.1204,0.1233,0.1281,0.1309,0.1352,0.137,0.1417,0.1443,0.1478,0.1517,0.1516,0.1568,0.1575,0.1587,0.1586,0.1597,0.1596,0.1608,0.1611,0.1611,0.1611,0.1611,0,0.0992,0.1025,0.1086,0.1113,0.1152,0.1194,0.1231,0.1263,0.1305,0.1338,0.137,0.1401,0.145,0.1486,0.1517,0.1558,0.1569,0.1587,0.1595,0.1585,0.1582,0.1601,0.1601,0.1612,0.1612,0.1612,0.1611,0,0.0983,0.1025,0.1075,0.1136,0.1152,0.1177,0.1229,0.1256,0.1288,0.133,0.1342,0.1393,0.1437,0.1479,0.1538,0.1558,0.16,0.161,0.1583,0.1588,0.1597,0.1596,0.1622,0.1627,0.1626,0.1626,0.1626,0,0.0991,0.1017,0.1081,0.1105,0.1134,0.1173,0.1202,0.1245,0.1273,0.1328,0.1348,0.1395,0.1434,0.1502,0.1545,0.159,0.1601,0.1607,0.1608,0.1597,0.1601,0.16,0.1602,0.1606,0.1606,0.1606,0.1606,0,0.1,0.1019,0.106,0.1107,0.114,0.1179,0.1219,0.1237,0.1287,0.1317,0.1362,0.1393,0.1452,0.1498,0.1547,0.1577,0.16,0.1605,0.161,0.16,0.1584,0.1593,0.1581,0.1604,0.1604,0.1605,0.1605,0.1605,0.1,0.1025,0.1073,0.1117,0.1151,0.1188,0.1216,0.1251,0.129,0.1342,0.1365,0.141,0.1456,0.1525,0.1554,0.159,0.1595,0.1603,0.1605,0.1606,0.1604,0.1577,0.1599,0.1599,0.1599,0.1599,0.1599,0,0.1011,0.1043,0.1083,0.1138,0.1172,0.1189,0.1234,0.1261,0.1301,0.1342,0.138,0.1431,0.1475,0.152,0.1566,0.1586,0.1598,0.1597,0.1596,0.1603,0.1596,0.1587,0.1587,0.1587,0.1587,0.1587,0.1587,0.1587,0.1021,0.1064,0.1088,0.1148,0.1181,0.1226,0.125,0.1283,0.1316,0.1372,0.1409,0.1438,0.148,0.1529,0.157,0.1582,0.1598,0.1594,0.1609,0.1602,0.1603,0.1604,0.1596,0.1597,0.1597,0.1612,0.1612,0.1612]},{"header":{"parameterUnit":"m.s-1","parameterCategory":1,"la1":30.2991,"la2":30.254,"lo1":-89.0895,"lo2":-89.0444,"dy":0.0017,"dx":0.0017,"nx":28,"ny":28,"refTime":"2025-06-05T03:00:00:Z","depth":0,"parameterNumber":3,"parameterNumberName":"V-component_of_WINDS"},"data":[0,0,0,0,0,0,0,0,0,0,0,0,0,0,0,0,0,0,0,0,0,0,0,0,0,0,0,0,0,0,0,0,0,0,0,0,0,0,0,0,0,0,0,0,0,0,0,0,0,0,0,0,0,0,0,0,0,0,4.3538,4.3537,0,4.3504,4.3504,4.3503,4.3416,4.3414,4.3413,4.3411,4.3378,4.3379,4.338,0,0,0,0,0,0,0,0,0,0,0,0,0,4.3528,4.3528,4.3538,4.3537,4.3537,4.3504,4.3504,4.3503,4.3417,4.3414,4.3412,4.341,4.3378,4.3379,4.338,0,0,0,0,0,0,0,0,0,0,0,0,0,4.3517,4.3529,4.3538,4.349,4.3485,4.3504,4.3504,4.3503,4.3417,4.3414,4.3412,4.3409,4.3377,4.3379,4.338,4.3444,0,0,4.3384,4.3385,0,0,0,0,0,0,0,0,4.3518,4.3518,4.3497,4.3493,4.3488,4.3461,4.3488,4.3483,4.3418,4.3443,4.3411,4.3408,4.3408,4.3407,4.3407,4.3442,4.3441,4.3384,4.3385,4.3385,4.3386,0,0,0,0,0,0,0,4.3519,4.3518,4.3524,4.3497,4.3491,4.347,4.3465,4.3487,4.3442,4.3441,4.3434,4.3431,4.3405,4.3406,4.3405,4.344,4.3384,4.3385,4.3386,4.3386,4.3525,4.3528,0,0,0,0,0,0,4.3526,4.352,4.3525,4.3523,4.3496,4.3472,4.3467,4.3473,4.3441,4.3434,4.3434,4.3427,4.3405,4.3404,4.3404,4.3475,4.3385,4.3387,4.3387,4.3522,4.3526,4.3529,0,0,0,0,0,0,4.3526,4.3527,4.3527,4.352,4.3518,4.3476,4.3482,4.3474,4.3474,4.3436,4.3428,4.3442,4.3403,4.3402,4.3434,4.3472,4.3387,4.3388,4.3519,4.3523,4.3527,4.3619,0,0,0,0,0,0,4.3526,4.3528,4.3551,4.3521,4.3519,4.3557,4.3485,4.3475,4.3476,4.3467,4.3442,4.3435,4.34,4.3433,4.3435,4.3473,4.3389,4.3515,4.3521,4.3526,4.3612,4.3626,4.3637,0,0,0,0,0,4.3526,4.3579,4.3553,4.3554,4.3547,4.356,4.3559,4.3517,4.348,4.3503,4.3478,4.3436,4.3468,4.3437,4.3439,4.3477,4.3512,4.3519,4.3525,4.3606,4.3623,4.3637,0,0,0,0,0,0,4.3616,4.3574,4.3545,4.3589,4.3579,4.3545,4.3573,4.3536,4.3536,4.3528,4.3478,4.3473,4.3511,4.3498,4.3463,4.3537,4.3483,4.3491,4.3544,4.3559,4.3572,4.3574,4.339,0,0,0,0,0,4.3641,4.3654,4.3617,4.366,4.3656,4.3616,4.362,4.3589,4.3576,4.3571,4.3549,4.3539,4.3546,4.3552,4.3557,4.361,4.3603,4.3638,4.365,4.3661,4.3667,4.3693,4.3708,4.355,4.355,4.355,0,0,4.3693,4.3672,4.3683,4.3678,4.3666,4.3681,4.3613,4.3632,4.3642,4.3574,4.3602,4.3586,4.3571,4.3613,4.3631,4.3603,4.371,4.3669,4.3678,4.3679,4.3701,4.3716,4.373,4.3555,4.3554,4.3553,0,0,4.3794,4.378,4.3813,4.3803,4.3785,4.3758,4.3766,4.3738,4.3724,4.3752,4.3701,4.3713,4.3728,4.3718,4.3716,4.3814,4.3774,4.3817,4.3883,4.3908,4.3921,4.3932,4.3965,4.3978,4.3824,4.3824,4.3825,0,4.3861,4.3881,4.3836,4.3857,4.3856,4.3795,4.3828,4.382,4.3806,4.3807,4.3776,4.3792,4.3778,4.3816,4.384,4.3841,4.3848,4.3819,4.3923,4.3933,4.3942,4.3974,4.3987,4.383,4.3829,4.3828,4.3828,0,4.3963,4.3978,4.4007,4.3993,4.3996,4.4024,4.3983,4.3991,4.396,4.3936,4.3964,4.3945,4.3944,4.3952,4.3922,4.3986,4.3969,4.3932,4.3877,4.3963,4.3992,4.4004,4.3837,4.3835,4.3834,4.3832,0,0,4.4119,4.408,4.4091,4.4084,4.406,4.4071,4.4096,4.4095,4.4102,4.4095,4.4114,4.4127,4.4092,4.4089,4.4058,4.4081,4.4158,4.404,4.4039,4.4061,4.4226,4.4254,4.4269,4.4132,4.4135,4.4136,4.4227,0,4.4214,4.4253,4.4213,4.4261,4.4273,4.4215,4.4237,4.4225,4.4204,4.4212,4.4188,4.4198,4.4151,4.4149,4.4169,4.4145,4.419,4.4138,4.4149,4.415,4.4154,4.4284,4.4314,4.44,4.4238,4.424,4.4242,0,4.4329,4.4325,4.4374,4.4346,4.435,4.437,4.4365,4.4374,4.4359,4.4342,4.4339,4.4301,4.4323,4.4271,4.4301,4.4266,4.4269,4.4258,4.426,4.4259,4.42,4.4285,4.4427,4.444,4.4259,4.4258,4.4257,0,4.4436,4.4444,4.4474,4.447,4.4438,4.4454,4.4442,4.4424,4.4425,4.4422,4.4422,4.4422,4.4421,4.4422,4.4385,4.435,4.442,4.4364,4.4406,4.4407,4.4422,4.4421,4.4565,4.4426,4.4426,4.4426,4.4425,0,4.4545,4.4577,4.4521,4.454,4.4574,4.4528,4.4563,4.4544,4.4529,4.4543,4.4494,4.4508,4.4459,4.4468,4.4439,4.4468,4.4469,4.4455,4.4447,4.4459,4.4461,4.4459,4.4452,4.4429,4.4428,4.4428,4.4427,0,4.467,4.4634,4.4663,4.4631,4.4623,4.465,4.4622,4.4638,4.4613,4.4632,4.4633,4.4595,4.4603,4.4566,4.4568,4.4549,4.4592,4.4574,4.4597,4.4591,4.4634,4.463,4.4781,4.4798,4.4649,4.4651,4.4652,0,4.4741,4.4764,4.4734,4.4739,4.473,4.4739,4.474,4.4696,4.47,4.4684,4.4702,4.4706,4.4706,4.4722,4.4694,4.4695,4.4677,4.4729,4.4676,4.4687,4.4676,4.4675,4.4676,4.474,4.4742,4.4744,4.4745,0,4.4871,4.4852,4.4855,4.4852,4.4855,4.485,4.4843,4.485,4.4803,4.4809,4.4816,4.4817,4.4818,4.4823,4.4818,4.4806,4.4768,4.4762,4.4771,4.4783,4.4795,4.4788,4.4626,4.4758,4.4757,4.4756,4.4755,4.4755,4.497,4.4987,4.4968,4.4974,4.4963,4.4957,4.497,4.4947,4.4952,4.4949,4.4923,4.4935,4.4919,4.4909,4.4901,4.491,4.4885,4.4899,4.4902,4.4906,4.4913,4.4794,4.4909,4.4908,4.4908,4.4908,4.4907,0,4.5096,4.5081,4.5086,4.5076,4.5081,4.5044,4.5034,4.504,4.5051,4.5039,4.504,4.5049,4.5052,4.5025,4.5026,4.5038,4.502,4.5039,4.5037,4.5035,4.4936,4.4927,4.5054,4.5053,4.5053,4.5053,4.5053,4.5053,4.5161,4.5188,4.5167,4.5189,4.5173,4.5184,4.5181,4.5176,4.5166,4.5177,4.518,4.5162,4.5144,4.5142,4.5144,4.5136,4.5138,4.5163,4.5149,4.5056,4.5042,4.5029,4.502,4.5164,4.5164,4.5247,4.5248,4.5249]}]]